Change the Weather History Date:

Friday, August 30, 2013

  Actual Average (KISN) Record (KISN)
Temperature  
Mean Temperature 76 °F 64 °F  
Max Temperature 93 °F 79 °F 97 °F (1973)
Min Temperature 59 °F 50 °F 37 °F (1935)
Degree Days  
Heating Degree Days 0 3  
Month to date heating degree days 45  
Since 1 June heating degree days 189  
Since 1 July heating degree days 69  
Cooling Degree Days 11 3  
Month to date cooling degree days 163  
Year to date cooling degree days 426  
Since 1 June cooling degree days 413  
Growing Degree Days 26 (Base 50)    
Moisture  
Dew Point 62 °F    
Average Humidity 69    
Maximum Humidity 100    
Minimum Humidity 28    
Precipitation  
Precipitation 0.00 in 0.05 in 0.96 in (1952)
Month to date precipitation 1.41  
Year to date precipitation 11.08  
Sea Level Pressure  
Sea Level Pressure 29.93 in    
Wind  
Wind Speed 4 mph (SSW)    
Max Wind Speed 13 mph    
Max Gust Speed 17 mph    
Visibility 10 miles    
Events      
T = Trace of Precipitation, MM = Missing Value Source: NWS Daily Summary

Daily Weather History Graph

Daily Weather History Graph

Search for Another Location

Airport or City:

Trip Planner

Search our weather history database for the weather conditions in past years. The results will help you decide how hot, cold, wet, or windy it might be!

Date:

Astronomy

Aug. 30, 2013 Rise Set
Actual Time 7:09 AM CDT 8:37 PM CDT
Civil Twilight 6:36 AM CDT 9:09 PM CDT
Nautical Twilight 5:57 AM CDT 9:48 PM CDT
Astronomical Twilight 5:15 AM CDT 10:30 PM CDT
Moon 1:36 AM CDT (8/30) 5:07 PM CDT (8/30)
Length of Visible Light 14h 32m
Length of Day
13h 28m
Waning Crescent, 29% of the Moon is Illuminated
Aug 30
Waning Crescent
Sep 5
New
Sep 12
First Quarter
Sep 19
Full
Sep 26
Last Quarter

Hourly Weather History & Observations

Time (CDT) Temp. Heat Index Dew Point Humidity Pressure Visibility Wind Dir Wind Speed Gust Speed Precip Events Conditions
12:15 AM 68.0 °F - 64.4 °F 88% 30.00 in 10.0 mi Calm Calm - N/A   Clear
12:35 AM 66.2 °F - 64.4 °F 94% 30.00 in 10.0 mi Calm Calm - N/A   Clear
12:55 AM 66.2 °F - 62.6 °F 88% 30.00 in 10.0 mi SSW 3.5 mph - N/A   Clear
1:15 AM 66.2 °F - 62.6 °F 88% 30.00 in 10.0 mi Calm Calm - N/A   Clear
1:35 AM 66.2 °F - 64.4 °F 94% 30.00 in 10.0 mi ESE 5.8 mph - N/A   Clear
1:55 AM 66.2 °F - 64.4 °F 94% 30.00 in 10.0 mi SE 5.8 mph - N/A   Clear
2:15 AM 66.2 °F - 62.6 °F 88% 30.00 in 10.0 mi Calm Calm - N/A   Clear
2:35 AM 62.6 °F - 62.6 °F 100% 30.01 in 10.0 mi Calm Calm - N/A   Clear
2:55 AM 62.6 °F - 62.6 °F 100% 30.01 in 10.0 mi Calm Calm - N/A   Clear
3:15 AM 62.6 °F - 62.6 °F 100% 30.00 in 10.0 mi Calm Calm - N/A   Clear
3:35 AM 64.4 °F - 62.6 °F 94% 30.00 in 10.0 mi Calm Calm - N/A   Clear
3:55 AM 60.8 °F - 60.8 °F 100% 30.00 in 10.0 mi Calm Calm - N/A   Clear
4:15 AM 64.4 °F - 62.6 °F 94% 30.00 in 10.0 mi Calm Calm - N/A   Clear
4:35 AM 64.4 °F - 62.6 °F 94% 29.99 in 10.0 mi Calm Calm - N/A   Clear
4:55 AM 64.4 °F - 64.4 °F 100% 29.99 in 10.0 mi Calm Calm - N/A   Clear
5:15 AM 64.4 °F - 62.6 °F 94% 29.99 in 10.0 mi Calm Calm - N/A   Clear
5:35 AM 60.8 °F - 60.8 °F 100% 29.99 in 10.0 mi Calm Calm - N/A   Clear
5:55 AM 60.8 °F - 60.8 °F 100% 29.99 in 10.0 mi Calm Calm - N/A   Clear
6:15 AM 59.0 °F - 59.0 °F 100% 29.99 in 10.0 mi Calm Calm - N/A   Clear
6:35 AM 60.8 °F - 60.8 °F 100% 29.99 in 10.0 mi Calm Calm - N/A   Clear
6:55 AM 62.6 °F - 62.6 °F 100% 29.99 in 10.0 mi SSE 3.5 mph - N/A   Clear
7:15 AM 64.4 °F - 62.6 °F 94% 29.99 in 10.0 mi SE 3.5 mph - N/A   Clear
7:35 AM 62.6 °F - 62.6 °F 100% 29.99 in 10.0 mi ESE 5.8 mph - N/A   Clear
7:55 AM 64.4 °F - 64.4 °F 100% 29.99 in 10.0 mi ESE 4.6 mph - N/A   Clear
9:15 AM 71.6 °F - 66.2 °F 83% 29.98 in 10.0 mi SE 4.6 mph - N/A   Clear
9:35 AM 73.4 °F - 64.4 °F 73% 29.98 in 10.0 mi SSE 5.8 mph - N/A   Clear
9:55 AM 75.2 °F - 64.4 °F 69% 29.97 in 10.0 mi SSE 9.2 mph - N/A   Clear
10:15 AM 77.0 °F - 64.4 °F 65% 29.97 in 10.0 mi South 10.4 mph - N/A   Clear
10:35 AM 80.6 °F 82.3 °F 64.4 °F 58% 29.98 in 10.0 mi South 6.9 mph - N/A   Clear
10:55 AM 80.6 °F 82.3 °F 64.4 °F 58% 29.97 in 10.0 mi South 11.5 mph - N/A   Clear
11:15 AM 80.6 °F 82.3 °F 64.4 °F 58% 29.97 in 10.0 mi South 12.7 mph - N/A   Clear
11:35 AM 82.4 °F 83.9 °F 64.4 °F 54% 29.96 in 10.0 mi South 10.4 mph - N/A   Partly Cloudy
11:55 AM 82.4 °F 83.9 °F 64.4 °F 54% 29.96 in 10.0 mi SSE 11.5 mph - N/A   Partly Cloudy
12:15 PM 82.4 °F 83.9 °F 64.4 °F 54% 29.96 in 10.0 mi SSW 11.5 mph - N/A   Clear
12:35 PM 86.0 °F 87.3 °F 64.4 °F 48% 29.95 in 10.0 mi South 6.9 mph - N/A   Clear
12:55 PM 86.0 °F 87.3 °F 64.4 °F 48% 29.94 in 10.0 mi South 8.1 mph - N/A   Clear
1:15 PM 87.8 °F 89.4 °F 64.4 °F 46% 29.93 in 10.0 mi South 12.7 mph - N/A   Clear
1:35 PM 87.8 °F 89.4 °F 64.4 °F 46% 29.92 in 10.0 mi SSW 6.9 mph - N/A   Clear
1:55 PM 89.6 °F 90.1 °F 62.6 °F 40% 29.91 in 10.0 mi SSW 11.5 mph 17.3 mph N/A   Clear
2:15 PM 89.6 °F 90.1 °F 62.6 °F 40% 29.91 in 10.0 mi South 12.7 mph - N/A   Clear
2:35 PM 91.4 °F 92.1 °F 62.6 °F 38% 29.90 in 10.0 mi SSW 6.9 mph - N/A   Clear
2:55 PM 91.4 °F 92.1 °F 62.6 °F 38% 29.90 in 10.0 mi WSW 9.2 mph - N/A   Clear
3:15 PM 91.4 °F 92.1 °F 62.6 °F 38% 29.89 in 10.0 mi SW 9.2 mph 16.1 mph N/A   Clear
3:35 PM 91.4 °F 92.1 °F 62.6 °F 38% 29.88 in 10.0 mi SW 9.2 mph - N/A   Clear
3:55 PM 93.2 °F 93.3 °F 60.8 °F 34% 29.87 in 10.0 mi WSW 9.2 mph 17.3 mph N/A   Clear
4:15 PM 91.4 °F 91.4 °F 60.8 °F 36% 29.86 in 10.0 mi SW 10.4 mph 17.3 mph N/A   Partly Cloudy
4:35 PM 93.2 °F 91.9 °F 57.2 °F 30% 29.86 in 10.0 mi West 10.4 mph - N/A   Partly Cloudy
4:55 PM 93.2 °F 91.3 °F 55.4 °F 28% 29.85 in 10.0 mi West 11.5 mph 16.1 mph N/A   Partly Cloudy
5:15 PM 93.2 °F 91.3 °F 55.4 °F 28% 29.84 in 10.0 mi West 10.4 mph 16.1 mph N/A   Clear
5:35 PM 91.4 °F 89.9 °F 57.2 °F 31% 29.84 in 10.0 mi WNW 10.4 mph - N/A   Clear
5:55 PM 91.4 °F 89.4 °F 55.4 °F 29% 29.83 in 10.0 mi WNW 9.2 mph - N/A   Clear
6:15 PM 91.4 °F 89.4 °F 55.4 °F 29% 29.82 in 10.0 mi West 8.1 mph - N/A   Clear
8:15 PM 84.2 °F 83.5 °F 57.2 °F 40% 29.82 in 10.0 mi WNW 6.9 mph - N/A   Clear
8:35 PM 80.6 °F 81.1 °F 59.0 °F 48% 29.82 in 10.0 mi West 3.5 mph - N/A   Clear
8:55 PM 77.0 °F - 59.0 °F 54% 29.83 in 10.0 mi SW 5.8 mph - N/A   Clear
9:15 PM 73.4 °F - 59.0 °F 61% 29.83 in 10.0 mi SE 3.5 mph - N/A   Clear
9:35 PM 71.6 °F - 59.0 °F 64% 29.83 in 10.0 mi Calm Calm - N/A   Clear
9:55 PM 68.0 °F - 59.0 °F 73% 29.82 in 10.0 mi Calm Calm - N/A   Clear
10:15 PM 66.2 °F - 59.0 °F 78% 29.82 in 10.0 mi Calm Calm - N/A   Clear
10:35 PM 66.2 °F - 59.0 °F 78% 29.82 in 10.0 mi Calm Calm - N/A   Clear
10:55 PM 66.2 °F - 59.0 °F 78% 29.82 in 10.0 mi Calm Calm - N/A   Clear
11:15 PM 64.4 °F - 59.0 °F 83% 29.81 in 10.0 mi SSW 3.5 mph - N/A   Clear
11:35 PM 64.4 °F - 59.0 °F 83% 29.81 in 10.0 mi Calm Calm - N/A   Clear
11:55 PM 62.6 °F - 59.0 °F 88% 29.82 in 10.0 mi SW 3.5 mph - N/A   Clear